Location: Unspecified
(0.0000°N, 0.0000°E)
Time: 11:15:59
(UTC+00:00)

Tiangong 2 - Pass Details

Date: 24 March 2019
Orbit: 380 x 390 km, 42.8° (Epoch: 24 March)

Event Time Altitude Azimuth Distance (km) Brightness Sun altitude
Rises 19:06:26 0° 224° (SW) 2,243 5.6 -15.0°
Reaches altitude 10° 19:08:31 10° 224° (SW) 1,388 4.5 -15.5°
Maximum altitude 19:11:38 87° 138° (SE) 381 0.9 -16.3°
Enters shadow 19:12:39 39° 48° (NE) 578 1.6 -16.6°
